Regional Weather Roundup
Issued by NWS

Home | Current Version | Previous Version | Text Only | Print | Product List | Glossary On
Versions: 1 2 3 4 5 6 7 8 9 10 11 12 13 14 15 16 17 18 19 20 21 22 23 24 25 26 27 28 29 30 31 32 33 34 35 36 37 38 39 40 41 42 43 44 45 46 47 48 49 50
000
ASUS43 KMKX 010000
RWRWI

WISCONSIN REGIONAL WEATHER ROUNDUP
NATIONAL WEATHER SERVICE MILWAUKEE/SULLIVAN WI
700 PM CDT FRI JUL 31 2015

NOTE: "FAIR" INDICATES FEW OR NO CLOUDS BELOW 12,000 FEET WITH NO
SIGNIFICANT WEATHER AND/OR OBSTRUCTIONS TO VISIBILITY.

WIZ001-002-006>008-014>016-023>028-010100-
NORTHWEST WISCONSIN

CITY           SKY/WX    TMP DP  RH WIND       PRES   REMARKS
SUPERIOR ARPT  SUNNY     77  51  39 NW17G24   29.91S
ASHLAND        LGT RAIN  69  63  81 N3        29.92S
6HR MIN TEMP:  64; 6HR MAX TEMP:  78; 6HR PCP:  0.04;

HAYWARD        MOSUNNY   77  49  37 NW6       29.94F
6HR MIN TEMP:  75; 6HR MAX TEMP:  79;

SIREN          SUNNY     78  47  33 NW13G20   29.96F
CUMBERLAND     SUNNY     73  46  38 W13G18    29.97F
RICE LAKE      SUNNY     76  48  38 W10G18    29.98S
CHETEK         SUNNY     77  51  39 W7        29.96F
LADYSMITH      SUNNY     76  50  39 W13G21    29.97S
EAU CLAIRE     SUNNY     78  49  35 NW13      29.95F
6HR MIN TEMP:  77; 6HR MAX TEMP:  81;

MENOMONIE      SUNNY     79  47  31 W13G18    29.97F
NEW RICHMOND   SUNNY     77  45  32 NW10G17   29.98F
OSCEOLA        SUNNY     78  48  35 W10       30.00F
$$

WIZ003>005-009-010-017-018-010100-
NORTH CENTRAL WISCONSIN

CITY           SKY/WX    TMP DP  RH WIND       PRES   REMARKS
MANITOWISH WTR MOSUNNY   63  58  82 W5        29.94F
ARBOR VITAE    MOSUNNY   64  59  82 CALM      29.95F
WOODRUFF       MOSUNNY   64  59  82 CALM      29.95F
RHINELANDER    PTSUNNY   64  56  75 W5        29.96F
6HR MIN TEMP:  61; 6HR MAX TEMP:  78; 6HR PCP:  0.02;

EAGLE RIVER    PTSUNNY   65  50  60 W9        29.94F
LAND O LAKES   PTSUNNY   69  48  47 W6        29.94F
PHILLIPS       PTSUNNY   68  58  72 N3        29.94F
TOMAHAWK       DRIZZLE   63  56  76 N5        29.97S
MEDFORD        MOSUNNY   73  52  47 W15G24    29.95F
MERRILL        NOT AVBL
$$

WIZ029-030-035-036-043>047-010100-
CENTRAL WISCONSIN

CITY           SKY/WX    TMP DP  RH WIND       PRES   REMARKS
WAUSAU         CLOUDY    71  53  52 N8G17     29.93R
6HR MIN TEMP:  71; 6HR MAX TEMP:  81;

MOSINEE        NOT AVBL
MARSHFIELD     SUNNY     76  49  38 NW14      29.95F
6HR MIN TEMP:  76; 6HR MAX TEMP:  80;

STEVENS POINT  MOSUNNY   75  52  44 NW9G18    29.95R
WAUPACA        SUNNY     80  49  33 W12G18    29.92S
WAUTOMA        NOT AVBL
WISC RAPIDS    SUNNY     77  48  35 NW16      29.96S
6HR MIN TEMP:  77; 6HR MAX TEMP:  82;

CAMP DOUGLAS   NOT AVBL
$$

WIZ011>013-019>022-031-037>040-048>050-010100-
NORTHEAST WISCONSIN

CITY           SKY/WX    TMP DP  RH WIND       PRES   REMARKS
ANTIGO         CLOUDY    63  57  80 W10       29.95S
SHAWANO        PTSUNNY   78  48  35 NW14G21   29.91R
OCONTO         MOSUNNY   78  50  37 NW8       29.86R
STURGEON BAY   SUNNY     73  55  53 NW8       29.89R
6HR MIN TEMP:  73; 6HR MAX TEMP:  81;

GREEN BAY      SUNNY     78  52  40 NW9       29.89R
6HR MIN TEMP:  78; 6HR MAX TEMP:  82;

MANITOWOC      NOT AVBL
APPLETON       PTSUNNY   77  48  36 W12G17    29.91S
CLINTONVILLE   PTSUNNY   77  45  31 NW14G22   29.90S
OSHKOSH        SUNNY     78  52  40 W16G22    29.91S
6HR MIN TEMP:  77; 6HR MAX TEMP:  81;

$$

WIZ032>034-041-042-053>061-010100-
SOUTHWEST WISCONSIN

CITY           SKY/WX    TMP DP  RH WIND       PRES   REMARKS
LA CROSSE      SUNNY     80  52  37 NW12      29.96F HX  80
6HR MIN TEMP:  80; 6HR MAX TEMP:  84;

SPARTA         SUNNY     80  45  29 NW10      29.98S
VIROQUA        SUNNY     76  52  42 NW6       30.00S
BOSCOBEL       SUNNY     82  54  37 NW5       29.97F HX  81
6HR MIN TEMP:  82; 6HR MAX TEMP:  87;

PRAIRIE DU CHI SUNNY     81  47  30 W10       29.98F HX  80
PLATTEVILLE    SUNNY     79  51  38 NW12G17   29.99S
$$

WIZ056-057-062-063-064-067-068-010100-
SOUTH CENTRAL WISCONSIN

CITY           SKY/WX    TMP DP  RH WIND       PRES   REMARKS
REEDSBURG      SUNNY     79  50  35 W12G18    29.96F
BARABOO/DELLS  SUNNY     79  44  29 NW13G21   29.96F
LONE ROCK      NOT AVBL
MINERAL POINT  SUNNY     79  46  31 W10       29.99S
MADISON        MOSUNNY   78  48  34 NW10G22   29.95S
6HR MIN TEMP:  78; 6HR MAX TEMP:  82;

MIDDLETON      SUNNY     80  44  28 NW14      29.97S
WATERTOWN      SUNNY     78  53  40 W10G16    29.93F
MONROE         SUNNY     79  50  36 NW10G17   29.97S
JANESVILLE     SUNNY     81  45  28 NW12G17   29.95S
$$

WIZ051-052-058>065-066-070>072-010100-
SOUTHEAST WISCONSIN

CITY           SKY/WX    TMP DP  RH WIND       PRES   REMARKS
MILWAUKEE      MOSUNNY   81  47  30 W18       29.92S HX  80
6HR MIN TEMP:  81; 6HR MAX TEMP:  84;

WAUKESHA       MOSUNNY   77  46  33 NW15      29.94F
MILWAUKEE/TIMM NOT AVBL
RACINE         MOSUNNY   80  49  33 NW10G21   29.94S
6HR MIN TEMP:  80; 6HR MAX TEMP:  84; 6HR PCP: TRACE;

BURLINGTON     SUNNY     78  46  31 NW12      29.94S
KENOSHA        SUNNY     79  50  36 NW12      29.93S
6HR MIN TEMP:  79; 6HR MAX TEMP:  84;

FOND DU LAC    SUNNY     78  52  40 NW13      29.92S
6HR MIN TEMP:  78; 6HR MAX TEMP:  83;

SHEBOYGAN      PTSUNNY   78  52  40 NW16G24   29.90S
6HR MIN TEMP:  78; 6HR MAX TEMP:  82;

WEST BEND      SUNNY     79  45  29 W14       29.92S
JUNEAU         MOSUNNY   77  52  41 NW7       29.94F
$$

LSZ147-162-010100-
LAKE SUPERIOR

STATION/POSITION TIME  TEMP    WIND        PRES    WAVE
                       AIR SEA DIR/SP/G            HT/PER
                 (UTC) (F)     (DEG/KT/KT) (MB)    (FT/S)
W MID LAKE BUOY  2250   59 54  240/ 12/ 14 1011.2F   1/ 4
DEVILS ISLAND    2300   67     220/ 13/ 16 1012.0F
PORT WING        2340   72     180/  3/  4 1012.5F
SAXON HARBOR     2340   67                 1012.2F
$$

LMZ867-665-643>646-010100-
LAKE MICHIGAN

STATION/POSITION TIME  TEMP    WIND        PRES    WAVE
                       AIR SEA DIR/SP/G            HT/PER
                 (UTC) (F)     (DEG/KT/KT) (MB)    (FT/S)
CHAMBERS ISLAND  2300   74     210/  1/ 10 1010.8S
S GREEN BAY BUOY 2300   74 72  310/ 10/ 12 1012.6R
N MID LAKE BUOY  2250   70 69   60/  2/  6 1010.2R   2/ 3
NORTHPORT PIER   2300   75     300/  9/ 15 1010.8R
SISTER BAY       2244   75     320/ 15/ 18   N/A
ALGOMA LAKESHORE 2342          360/  5/  7   N/A
KEWAUNEE LAKESHO 2300   78     300/  7/ 12 1010.9R
SHEBOYGAN LAKESH 2300   79     280/ 14/ 19 1012.2F
PORT WASHINGTON  2340   82     310/  7/ 15 1012.9F
ATWATER BUOY     2300   75 67  310/ 16/ 21 1014.1F
MILWAUKEE LAKESH 2300   81     290/ 14/ 23   N/A
KENOSHA   LAKESH 2300   81     320/ 14/ 22 1012.5F
$$

TC  - TEMPERATURE IN CELSIUS
VSB - VISIBILITY IN STATUTE MILES
WCI - WIND CHILL INDEX
HX  - HEAT INDEX



USA.gov is the U.S. government's official web portal to all federal, state and local government web resources and services.